Minneapolis Flying Cloud, MN

2:29 AM CDT on March 23, 2017 (GMT -0500)
Flying Cloud

Weather History for KFCM - June, 2011

Change the Weather History Date:

Friday, June 17, 2011

  Actual Average Record
Temperature  
Mean Temperature 70 °F -  
Max Temperature 82 °F 75 °F 90 °F (2007)
Min Temperature 60 °F 56 °F 44 °F (2000)
Cooling Degree Days 6    
Growing Degree Days 20 (Base 50)    
Moisture  
Dew Point 64 °F    
Average Humidity 78    
Maximum Humidity 94    
Minimum Humidity 62    
Precipitation  
Precipitation 0.97 in - - ()
Sea Level Pressure  
Sea Level Pressure 29.78 in    
Wind  
Wind Speed 8 mph (East)    
Max Wind Speed 23 mph    
Max Gust Speed 39 mph    
Visibility 8 miles    
Events Rain , Thunderstorm    
Averages and records for this station are not official NWS values.
T = Trace of Precipitation, MM = Missing Value Source: NWS Daily Summary

Daily Weather History Graph

Daily Weather History Graph

Search for Another Location

Airport or City:

Trip Planner

Search our weather history database for the weather conditions in past years. The results will help you decide how hot, cold, wet, or windy it might be!

Date:

Astronomy

Jun. 17, 2011 Rise Set
Actual Time 5:27 AM CDT 9:02 PM CDT
Civil Twilight 4:49 AM CDT 9:39 PM CDT
Nautical Twilight 4:00 AM CDT 10:28 PM CDT
Astronomical Twilight 2:55 AM CDT 11:34 PM CDT
Moon 10:35 PM CDT (6/17) 7:18 AM CDT (6/17)
Length of Visible Light 16h 49m
Length of Day
15h 35m
Waning Gibbous, 96% of the Moon is Illuminated
Jun 17
Waning Gibbous
Jun 23
Last Quarter
Jul 1
New
Jul 8
First Quarter
Jul 15
Full

Hourly Weather History & Observations

Time (CDT) Temp. Heat Index Dew Point Humidity Pressure Visibility Wind Dir Wind Speed Gust Speed Precip Events Conditions
12:53 AM 63.0 °F - 57.0 °F 81% 29.80 in 10.0 mi ENE 5.8 mph - N/A   Clear
1:53 AM 62.1 °F - 55.9 °F 80% 29.80 in 10.0 mi ENE 4.6 mph - N/A   Clear
2:53 AM 61.0 °F - 57.0 °F 87% 29.81 in 10.0 mi ENE 5.8 mph - N/A   Clear
3:53 AM 61.0 °F - 57.0 °F 87% 29.80 in 10.0 mi NE 6.9 mph - N/A   Clear
4:53 AM 60.1 °F - 57.0 °F 90% 29.79 in 10.0 mi NE 6.9 mph - N/A   Clear
5:53 AM 60.1 °F - 57.0 °F 90% 29.82 in 10.0 mi East 4.6 mph - N/A   Clear
6:53 AM 62.1 °F - 57.9 °F 86% 29.80 in 10.0 mi ENE 4.6 mph - N/A   Clear
7:53 AM 64.9 °F - 59.0 °F 81% 29.79 in 10.0 mi East 6.9 mph - N/A   Overcast
8:53 AM 66.9 °F - 60.1 °F 79% 29.75 in 10.0 mi ENE 11.5 mph - N/A   Clear
9:53 AM 71.1 °F - 62.1 °F 73% 29.73 in 10.0 mi East 11.5 mph - N/A   Clear
10:53 AM 73.9 °F - 63.0 °F 68% 29.75 in 10.0 mi East 6.9 mph - N/A   Clear
11:53 AM 75.0 °F - 64.0 °F 69% 29.77 in 9.0 mi ENE 9.2 mph - N/A   Clear
12:53 PM 79.0 °F - 64.9 °F 62% 29.76 in 10.0 mi East 11.5 mph - N/A   Mostly Cloudy
1:53 PM 79.0 °F - 64.9 °F 62% 29.76 in 10.0 mi East 9.2 mph - N/A   Clear
3:53 PM 80.1 °F 82.1 °F 66.0 °F 62% 29.75 in 10.0 mi ESE 12.7 mph - N/A   Clear
4:53 PM 80.1 °F 82.1 °F 66.0 °F 62% 29.73 in 10.0 mi East 9.2 mph - N/A   Clear
5:53 PM 80.1 °F 82.3 °F 66.9 °F 64% 29.75 in 10.0 mi ENE 6.9 mph - N/A   Partly Cloudy
6:53 PM 81.0 °F 83.3 °F 66.9 °F 62% 29.75 in 10.0 mi East 8.1 mph - N/A   Clear
7:53 PM 80.1 °F 82.7 °F 68.0 °F 67% 29.75 in 9.0 mi East 8.1 mph - N/A   Clear
8:53 PM 78.1 °F - 66.9 °F 68% 29.76 in 10.0 mi East 9.2 mph - N/A   Clear
9:53 PM 77.0 °F - 68.0 °F 74% 29.76 in 10.0 mi ENE 8.1 mph - N/A   Overcast
10:07 PM 73.4 °F - 68.0 °F 83% 29.78 in 1.8 mi NNE 9.2 mph - 0.23 in Rain Heavy Rain
10:13 PM 73.4 °F - 69.8 °F 88% 29.82 in 2.0 mi Variable 3.5 mph - 0.26 in Rain , Thunderstorm Light Thunderstorms and Rain
10:18 PM 73.4 °F - 69.8 °F 88% 29.81 in 0.8 mi Calm Calm - 0.51 in Rain , Thunderstorm Thunderstorms and Rain
10:31 PM 71.6 °F - 69.8 °F 94% 29.81 in 2.0 mi Calm Calm - 0.72 in Rain , Thunderstorm Heavy Thunderstorms and Rain
10:41 PM 73.4 °F - 69.8 °F 88% 29.79 in 6.0 mi East 9.2 mph - 0.74 in Rain , Thunderstorm Light Thunderstorms and Rain
10:53 PM 73.9 °F - 70.0 °F 87% 29.78 in 10.0 mi East 4.6 mph - 0.74 in   Mostly Cloudy
11:11 PM 73.4 °F - 69.8 °F 88% 29.81 in 9.0 mi Calm Calm - N/A Thunderstorm Mostly Cloudy
11:33 PM 69.8 °F - 64.4 °F 83% 29.82 in 2.0 mi SSW 23.0 mph 39.1 mph 0.16 in Rain , Thunderstorm Thunderstorms and Rain
11:40 PM 71.6 °F - 62.6 °F 73% 29.83 in 1.2 mi South 19.6 mph 39.1 mph 0.22 in Rain , Thunderstorm Thunderstorms and Rain
11:43 PM 71.6 °F - 64.4 °F 78% 29.82 in 2.0 mi South 16.1 mph 38.0 mph 0.22 in Rain , Thunderstorm Light Thunderstorms and Rain
11:50 PM 69.8 °F - 64.4 °F 83% 29.80 in 9.0 mi SSE 12.7 mph 20.7 mph 0.23 in Rain , Thunderstorm Light Thunderstorms and Rain
11:53 PM 70.0 °F - 64.0 °F 81% 29.79 in 10.0 mi SE 10.4 mph 20.7 mph 0.23 in Rain , Thunderstorm Light Thunderstorms and Rain